Погода Сенно

Погода Сенно : погода сейчас, прогноз погоды и архив. Всё, что Вы хотите узнать о погоде Сенно!

Хотите узнать прогноз погоды Сенно? Тогда Вам сюда: Погода Сенно

Поиск расширенной информации на нашем сайте:

Другие новости

Новости СМИ2

Главная страница сайта

Новости сайта

03.07.2017

Напоминаем, что на нашем специализированном сайте Метеоцентр.Азия вы можете получить высокодетализированные автоматические прогнозы погоды по пунктам России, СНГ и мира в авиационном формате (включающие направление и скорость ветра, видимость, явления погоды, количество и форму облачности, нижнюю и верхнюю границу облачности).

Рекомендуем: Все подробности Значение тату лев здесь.

Погода Сенно - сегодня

Время (UTC), дата Ветер
(°,м/с) 
Видим.   Явления Облачность Т
(°С)
Тd
(°С)
f(%) Тe
(°С)
Pmin
(гПа)
dP
(гПа)
Po
(мм)
O2
(г/м3)
Тmin Tmax R s Состояние
почвы
06 07.09.17 280 (З) 10 км  в посл. час дождь  10/10 210 м 
[Frnb]
+9 +8.6 97 +10  1004.1    737  286  +8.6    25     
18 07.09.17 220 (ЮЗ) 20000 м    9/9 720 м 
[Sc]
+10.1 +8.9 92 +11  1005.4    738  285    +12.7       
06 08.09.17 320 (СЗ) 15000 м    9/0 средняя 
[Ac und]
+10 +8.8 92 +11  1005.9    739  286  +7.9         
18 08.09.17 220 (ЮЗ) 1{10}  20000 м    3/0 верхняя 
[Ci fib]
+10.9 +8.2 83 +12  1010.6    742  286    +16.1       
06 09.09.17 190 (Ю) 10 км  в посл. час ливневой дождь  9/0 средняя 
[Ac und]
+12 +11.2 95 +16  1012.3    744  285  +9.9    0.0     
18 09.09.17 170 (Ю) 15000 м    ясно 
+13.4 +11.8 90 +19  1012.1    743  283    +21       
06 10.09.17 180 (Ю) 15000 м    3/0 верхняя 
[Cc]
+14.9 +11.5 80 +19  1009.8    742  281  +12.3         
18 10.09.17 180 (Ю) 10 км    3/0 верхняя 
[Ci fib]
+16.5 +15.3 93 +28  1009.3    742  278    +22.5       
06 11.09.17 190 (Ю) 10 км    9/0 средняя 
[Ac und]
+16.5 +15.1 91 +27  989.4    742  279  +15.8         
18 11.09.17 180 (Ю) 20000 м    4/0 верхняя 
[Ci fib]
+18.8 +16.4 86 +32  1009.3    742  276    +25.5       
06 12.09.17 190 (Ю) 10 км    9/0 верхняя 
[Ci fib]
+18.6 +15.6 83 +30  1006.2    739  276  +15.8         
18 12.09.17 180 (Ю) 20000 м    6/0 верхняя 
[Ci fib]
+19.8 +15.8 78 +32  1003.6    738  274    +26.9       
06 13.09.17 250 (З) 5000 м  слаб. дождь  10/10 210 м 
[Frnb|Ns]
+16.4 +15.9 97 +29  1000.3    735  276  +16.4       
18 13.09.17 200 (Ю) 20000 м  {дождь}  6/0 средняя 
[Ac und]
+13.7 +11.4 86 +18  1004    738  281    +17.4     
06 14.09.17 220 (ЮЗ) 3-10{10}  20000 м    ясно 
+14.2 +9.8 75 +15  1000    735  280  +11.6         
18 14.09.17 210 (ЮЗ) 3-10{15}  20000 м  в посл. час ливневой дождь  10/10 400 м 
[Frnb]
+15.3 +13.5 89 +23  1001.1    735  278    +18.5     
06 15.09.17 230 (ЮЗ) 2{13}  9000 м  слаб. дождь  10/10 330 м 
[Frnb|Ns]
+11 +10 94 +13  1000.8    735  283  +11       
18 15.09.17 240 (ЮЗ) 2{13}  20000 м  {ливн. осадки, дождь}  8/0 средняя 
[Ac und]
+12.2 +8 75 +13  1009.9    742  285    +15     
18 16.09.17 260 (З) 20000 м    8/0 средняя 
[Ac und]
+13.2 +9.7 79 +15  1019.8    749  286    +18.3       
06 17.09.17 140 (ЮВ) 20000 м  {ливн. осадки}  9/0 средняя 
[Ac und]
+12.7 +10 84 +14  1017.6    747  286  +11.1    0.0     
18 17.09.17 080 (В) 1{10}  7000 м  слаб. дождь  10/10 300 м 
[Frnb|Ns]
+14.6 +13.9 96 +23  1012    743  282    +17.7     
06 18.09.17 230 (ЮЗ) 20000 м  {ливн. осадки, дождь}  3/0 средняя 
[Ac trans]
+16.8 +14.2 85 +25  1000.8    735  276  +14.6       
18 18.09.17 230 (ЮЗ) 6-14{17}  20000 м  {ливн. осадки}  9/9 660 м 
[Sc]
+13 +8.8 76 +12  999.5    734  281    +19  0.5     
06 19.09.17 250 (З) 3{15}  20000 м  {ливн. осадки}  9/9 600 м 
[Sc]
+10.4 +7.4 82 +10  1011.8    743  287  +9.2       
18 19.09.17 210 (ЮЗ) 1{11}  20000 м    ясно 
+11 +7.7 80 +12  1018.7    748  288    +16.3       
Время (UTC), дата Ветер
(°,м/с) 
Видим.   Явления Облачность Т
(°С)
Тd
(°С)
f(%) Тe
(°С)
Pmin
(гПа)
dP
(гПа)
Po
(мм)
O2
(г/м3)
Тmin Tmax R s Состояние
почвы

Для получения пояснительной информации подведите курсор к названию столбца.

ПОГОДА Сенно - архив

Всё, что Вы хотите узнать о погоде Сенно - удобно и подробно!

Выберите нужную дату (начиная с 1 января 2015* года) и нажмите кнопку "Найти".
Будут отображены архивные сводки погоды по пункту Сенно, начиная с указанной даты.


Отображать данные в формате CSV (для использования в таблицах Excel)


Внимание! Наш архив погоды предназначен исключительно для личного некоммерческого использования в познавательных целях. Если Вам необходимы официальные справки о состоянии погоды (для производственных, юридических, коммерческих и т.п. целей), обращайтесь в органы Росгидромета.

*Примечание: данная дата относится к архиву по метеостанциям СССР (Россия, СНГ, Балтия).
Архив по метеостанциям Зарубежной Европы и Азии (кроме Китая) хранится 10 дней, по другим регионам земного шара (Китай, Африка, Америка, Австралия, Океания) - 1 день.

Сенно - район местоположения метеостанции


Название, широта, долгота, высота метеостанции:
Сенно 54.8°ш. 29.7°д. 176 м над ур. моря [Беларусь]

Дополнительная информация

В oтличие oт бoльшинства пoгoдных сайтoв мы публикуем пoдрoбную метеoинфoрмацию в детальнoм прoфессиoнальнoм фoрмате.

Характеристики температуры и влажнoсти вoздуха измеряются на высoте 2 м в тени вдали oт зданий и деревьев.
Скoрoсть ветра измеряется на высoте 10 м (на урoвне рoста челoвека скoрoсть ветра ниже в 1.5-2 раза). Если метеoстанция нахoдится в гoрoде или в лесу, тo скoрoсть ветра занижена на 2-4 м/с пo сравнению с oткрытым местoм. Скoрoсть ветра над акватoриями крупных рек и oзёр, а также на вершинах хoлмoв на 2-5 м/с выше, чем в oбычных услoвиях.
Атмoсфернoе давление в разных тoчках местнoсти мoжет значительнo oтличаться oт давления на метеoстанции, в зависимoсти oт услoвий рельефа (при пoдъёме на 10 м давление пoнижается примернo на 1 мм рт.ст.).